Wind_Speed
10 9 7 6 5 6 9 10 11 12 12 10 8 6 3 2 2 2 3 3 2 2 4 3 5 3 5 5 5 3 4 7 7 8 6 3 3 3 6 12 11 11 9 7 4
11 10 8 7 6 6 10 11 11 12 12 10 9 6 4 2 0 1 3 3 3 5 6 5 4 2 3 2 4 3 2 3 3 3 3 1 2 1 3 6 10 11 14 4 6
11 11 9 8 7 6 10 12 12 13 12 10 9 7 6 5 2 1 2 4 4 6 6 4 4 4 1 1 1 2 1 1 5 6 4 2 2 5 2 5 7 10 14 2 8
12 12 11 9 7 7 9 14 13 14 13 11 10 8 7 8 2 3 2 4 4 4 6 6 5 5 4 4 1 2 1 1 2 6 6 3 2 5 6 4 9 15 5 7 10
12 12 12 10 8 8 9 14 15 15 14 12 11 9 7 7 7 5 4 4 5 5 5 6 8 7 6 5 4 3 2 1 4 8 5 5 2 6 7 6 13 8 4 9 12
14 12 12 10 9 9 9 14 16 16 15 13 12 10 8 3 6 6 5 6 9 7 4 3 7 9 8 6 7 6 4 2 4 4 6 4 4 4 7 7 13 8 6 10 11
15 14 13 11 10 10 10 13 18 17 15 14 12 12 12 8 5 5 4 7 13 10 4 1 5 6 7 6 7 4 3 3 2 1 4 3 6 3 4 8 11 11 7 7 10
15 15 14 13 11 10 10 13 18 18 16 14 12 11 11 11 10 6 5 7 9 9 6 1 1 3 8 6 4 3 3 5 1 2 0 2 5 8 6 6 11 12 9 8 10
13 16 16 14 12 11 11 12 18 19 16 15 12 10 7 10 10 8 7 7 6 6 8 5 3 3 3 7 5 6 3 3 2 3 1 2 3 6 6 5 7 9 9 8 8
12 15 17 16 13 12 12 12 17 20 17 16 13 8 10 10 11 11 9 9 8 8 7 6 5 3 4 6 8 8 6 6 4 3 2 2 2 5 3 5 4 4 6 7 7
14 14 17 17 15 13 13 12 15 19 19 16 8 14 9 11 11 12 10 10 7 6 5 6 6 4 5 7 6 8 7 4 2 3 1 1 3 3 5 8 9 8 9 7 7
16 15 16 17 16 15 14 14 16 16 17 19 17 13 10 10 10 13 11 9 9 7 8 6 5 6 5 8 5 5 5 4 2 1 4 3 4 6 11 11 8 7 4 5 6
19 17 16 18 17 16 15 13 15 18 13 17 17 16 16 12 10 12 12 9 7 8 9 9 5 11 7 4 3 4 5 4 3 4 4 6 7 9 11 10 9 7 7 8 8
20 19 16 17 18 17 15 13 13 13 6 11 16 17 16 14 10 15 16 10 7 3 6 6 8 10 6 5 6 6 3 5 7 7 8 6 12 11 9 9 10 10 13 13 15
20 20 16 17 19 18 14 13 12 9 5 6 12 17 18 16 8 14 17 11 9 5 2 4 5 8 6 5 6 0 4 7 8 5 7 4 4 14 12 10 11 9 10 10 10
19 19 17 17 20 18 16 14 12 8 7 3 7 14 16 18 12 10 13 14 10 10 11 10 8 9 7 5 5 5 7 7 5 5 4 4 7 12 13 11 12 10 8 8 10
17 19 17 17 20 20 18 17 9 12 5 4 6 11 15 15 14 11 10 15 10 9 11 9 11 8 6 7 6 8 8 10 9 9 10 3 5 11 10 11 15 14 12 13 15
16 18 17 16 20 21 21 19 11 11 8 5 5 9 18 14 15 13 10 14 16 9 4 11 13 9 9 12 6 13 12 7 4 3 12 4 5 9 13 13 17 20 19 17 16
15 18 17 15 21 23 24 19 13 8 8 6 4 11 16 15 12 16 13 12 13 15 9 16 20 7 7 8 7 12 10 4 6 2 7 7 4 5 8 7 13 21 20 16 14
14 16 17 16 21 25 25 21 11 7 5 7 7 10 15 18 16 18 15 12 16 14 14 5 7 5 7 13 13 10 8 9 8 2 3 7 4 9 11 6 12 18 18 16 13
14 16 18 18 22 27 25 22 13 6 6 5 6 7 9 12 18 20 13 10 20 18 13 5 12 10 11 14 13 14 11 8 2 5 4 5 5 6 11 12 13 17 15 12 9
14 12 19 21 26 24 23 22 13 13 6 9 8 7 8 11 12 17 17 8 16 16 17 11 10 16 20 10 16 14 13 12 11 10 7 9 5 7 13 13 16 17 15 12 9
14 18 17 23 22 22 19 20 16 13 8 7 7 7 8 7 6 9 11 12 15 18 14 9 11 17 13 10 15 13 15 14 9 6 6 11 8 2 11 15 18 16 13 11 11
13 10 16 25 23 21 23 21 20 14 9 12 7 6 10 2 3 3 4 9 12 15 14 15 16 17 18 11 12 12 15 16 13 11 9 12 5 7 10 13 17 16 14 12 11
14 10 14 22 26 19 21 16 21 20 12 9 11 10 11 4 4 6 8 6 11 20 24 18 12 13 10 6 9 10 13 15 12 7 9 6 4 7 10 11 12 14 15 14 14
16 12 15 7 20 20 21 21 19 21 13 11 14 9 15 11 6 10 16 16 12 19 22 28 18 14 4 2 6 8 10 10 8 4 4 4 3 7 9 13 14 16 16 15 14
14 13 13 16 18 21 20 17 15 19 19 11 5 11 12 14 12 19 19 18 15 17 21 20 15 15 12 4 1 10 10 8 6 6 2 4 3 4 4 11 16 17 16 15 17
Wind_Direction
213 219 207 213 183 179 180 175 180 182 179 185 186 174 185 192 202 247 261 242 209 190 163 155 153 82 46 49 61 86 83 75 68 67 56 108 78 43 49 34 19 12 10 347 177
215 217 217 213 203 186 181 181 181 184 184 189 192 186 176 193 94 259 257 231 213 162 169 175 193 212 12 61 57 123 53 71 38 37 61 93 127 312 27 16 5 354 344 329 168
223 219 218 214 211 195 189 183 184 189 189 193 197 194 177 175 86 274 254 192 178 153 169 190 210 230 262 231 25 142 73 103 13 31 36 118 87 349 355 0 318 334 336 178 160
227 224 216 215 211 205 195 188 189 194 194 199 199 200 184 181 155 253 240 193 174 183 207 218 214 223 236 210 178 115 152 78 355 9 3 134 339 0 352 333 341 331 344 144 150
223 221 217 215 210 209 201 194 194 198 200 202 202 201 181 187 235 262 255 228 198 156 182 227 231 223 226 231 195 185 213 288 347 354 91 78 38 347 4 353 350 3 110 144 148
219 216 217 215 218 210 209 202 198 202 205 205 207 200 179 167 229 257 266 244 184 161 181 264 217 207 220 222 188 202 225 346 19 51 68 85 10 21 23 17 11 37 102 133 149
220 217 221 221 215 213 214 209 200 206 208 209 211 211 215 219 244 259 267 214 186 167 178 84 158 166 204 210 208 194 165 127 138 28 69 105 56 50 60 39 30 50 79 129 154
223 221 222 223 216 215 219 214 206 207 212 213 213 222 229 231 241 245 212 204 197 200 215 221 210 231 215 198 200 215 228 202 150 161 256 72 63 49 97 69 50 47 66 101 140
230 223 223 223 218 214 218 217 212 209 213 217 217 225 238 233 235 225 208 206 198 229 231 260 313 242 216 219 233 225 171 192 137 130 154 119 64 53 113 91 61 49 61 81 112
232 225 223 223 222 213 220 215 214 212 214 220 221 225 243 219 223 217 206 221 248 245 246 262 292 283 226 203 225 182 172 161 151 192 169 118 111 57 107 108 102 92 82 91 119
231 229 223 221 221 213 218 215 217 221 217 213 219 211 243 220 218 222 222 227 240 248 258 280 284 220 186 187 160 155 160 161 219 257 68 160 167 194 143 139 140 140 100 102 128
229 228 225 219 220 212 215 215 212 215 223 224 222 212 232 223 217 226 227 217 226 235 266 275 255 237 178 177 167 165 186 191 208 267 141 89 116 151 156 151 148 153 140 81 105
226 224 223 218 217 213 214 217 212 218 230 238 233 226 230 236 229 224 221 213 222 240 258 240 201 162 150 178 189 192 202 199 171 169 179 143 131 148 167 164 171 164 152 141 154
225 220 220 215 214 212 212 212 208 215 230 238 241 234 224 227 243 228 219 205 222 230 225 210 212 202 224 225 208 167 224 202 188 193 126 223 123 162 166 163 160 155 152 146 150
219 217 215 214 211 209 206 202 197 180 240 206 221 218 224 207 232 231 212 216 211 245 194 204 196 221 215 214 174 23 152 162 174 158 180 151 231 149 171 174 171 162 164 160 148
212 211 211 213 207 202 198 190 181 185 223 211 215 203 204 203 214 214 221 220 220 232 249 237 247 209 194 203 194 136 126 138 166 205 191 129 265 153 178 184 172 167 171 178 188
206 204 209 212 203 197 191 181 181 220 201 199 191 191 190 199 203 198 210 208 204 218 228 232 232 222 206 196 205 181 185 172 193 197 82 128 239 112 153 181 187 194 203 220 216
200 201 207 212 200 193 187 179 218 202 205 183 189 187 193 198 205 204 188 205 206 216 223 211 197 199 208 195 207 203 225 298 201 208 117 144 197 139 181 185 195 207 217 224 226
199 202 209 212 200 192 185 198 205 203 193 200 213 192 197 202 203 198 206 213 217 214 228 157 233 202 216 192 177 196 214 251 287 234 261 131 160 147 193 216 207 205 210 228 242
204 207 215 214 203 193 190 201 206 200 179 192 212 199 200 202 201 203 208 224 236 215 213 247 226 225 220 206 206 200 210 214 223 198 266 135 227 117 161 173 191 199 216 231 254
217 216 221 215 201 195 200 203 211 204 182 180 195 183 191 192 202 201 210 227 209 198 205 222 210 233 216 212 209 209 217 230 272 270 308 220 152 189 184 206 207 215 223 238 249
220 213 220 209 196 202 203 202 207 203 207 208 202 172 168 182 205 210 214 211 183 188 223 219 228 209 228 199 201 211 232 215 223 183 238 302 81 195 212 215 220 223 226 230 218
215 221 215 202 192 204 199 210 194 197 206 190 180 168 168 159 175 206 221 226 202 188 224 244 234 234 203 236 219 211 209 228 231 244 204 281 115 174 218 225 220 220 215 207 208
211 210 214 201 194 195 206 204 204 196 199 205 176 192 185 78 96 302 254 237 230 236 223 239 254 250 283 196 181 199 203 206 213 215 171 242 122 234 239 233 215 207 201 205 223
201 204 200 209 205 200 201 205 203 204 211 218 242 245 218 222 274 4 323 246 224 228 222 208 210 277 284 251 193 189 188 189 203 239 257 18 317 215 231 208 195 205 206 220 236
200 206 211 204 197 207 204 210 204 207 214 232 239 241 225 216 141 274 290 247 239 217 210 207 219 222 214 342 188 187 186 191 204 215 252 288 244 183 247 220 213 211 223 239 259
203 212 207 215 204 198 207 204 209 205 220 202 217 206 211 238 231 281 288 239 231 218 201 195 207 224 205 343 299 203 183 179 195 220 230 245 212 273 288 245 231 228 240 261 280
Height
3167 3168 3170 3170 3171 3172 3173 3174 3175 3176 3177 3177 3179 3180 3180 3180 3180 3181 3181 3182 3181 3181 3181 3182 3183 3183 3184 3184 3185 3186 3187 3188 3189 3188 3189 3187 3187 3186 3186 3186 3186 3185 3185 3184 3183
3166 3167 3169 3170 3171 3172 3172 3174 3175 3175 3177 3178 3179 3180 3180 3180 3181 3181 3182 3181 3181 3181 3182 3183 3184 3184 3185 3185 3186 3186 3188 3189 3189 3189 3189 3188 3189 3188 3188 3186 3186 3185 3184 3182 3182
3165 3166 3167 3169 3170 3171 3172 3173 3174 3175 3177 3177 3178 3179 3181 3181 3183 3182 3181 3181 3181 3182 3183 3184 3185 3185 3186 3186 3187 3188 3190 3189 3188 3188 3188 3189 3189 3188 3190 3189 3188 3184 3182 3181 3182
3163 3164 3165 3168 3169 3171 3172 3172 3173 3174 3176 3177 3178 3179 3181 3182 3187 3182 3182 3182 3182 3182 3183 3184 3185 3186 3186 3187 3188 3190 3189 3189 3188 3189 3188 3189 3189 3188 3188 3188 3186 3183 3181 3181 3182
3162 3163 3165 3166 3167 3169 3171 3171 3172 3173 3175 3176 3178 3179 3181 3182 3183 3181 3182 3182 3182 3182 3183 3184 3184 3185 3187 3187 3189 3189 3189 3189 3189 3189 3189 3189 3190 3189 3188 3187 3185 3181 3181 3182 3183
3160 3161 3163 3164 3166 3167 3169 3171 3171 3172 3174 3175 3177 3179 3181 3182 3181 3181 3181 3181 3182 3183 3183 3183 3183 3184 3186 3187 3188 3189 3189 3190 3189 3189 3189 3190 3190 3189 3189 3187 3185 3182 3182 3183 3184
3158 3159 3162 3163 3164 3166 3167 3169 3169 3171 3173 3175 3177 3178 3180 3182 3180 3180 3180 3180 3182 3183 3184 3184 3184 3185 3185 3187 3188 3189 3191 3191 3191 3190 3190 3191 3191 3190 3189 3188 3187 3185 3184 3184 3185
3156 3157 3159 3161 3162 3164 3166 3167 3168 3170 3172 3174 3176 3177 3178 3179 3179 3180 3180 3181 3182 3184 3184 3184 3185 3185 3186 3186 3187 3190 3190 3190 3191 3191 3190 3191 3192 3190 3189 3190 3189 3187 3186 3186 3187
3154 3155 3157 3159 3160 3162 3164 3165 3167 3168 3171 3173 3176 3177 3178 3177 3178 3179 3180 3182 3183 3184 3184 3184 3184 3185 3185 3187 3188 3188 3187 3189 3191 3190 3191 3192 3192 3190 3190 3191 3190 3190 3189 3189 3189
3151 3152 3154 3156 3158 3160 3162 3163 3165 3167 3169 3172 3174 3178 3176 3177 3177 3178 3180 3181 3183 3183 3184 3184 3184 3183 3185 3186 3183 3186 3187 3189 3189 3191 3190 3192 3192 3190 3190 3191 3191 3192 3192 3191 3191
3148 3149 3151 3153 3156 3158 3160 3162 3166 3168 3167 3171 3173 3174 3173 3175 3176 3178 3179 3181 3182 3183 3184 3183 3184 3184 3184 3185 3185 3187 3187 3188 3189 3188 3190 3190 3191 3192 3191 3192 3193 3194 3194 3194 3193
3145 3147 3149 3150 3154 3155 3157 3158 3161 3164 3167 3168 3170 3172 3173 3174 3176 3177 3178 3181 3182 3184 3182 3183 3183 3182 3183 3185 3186 3187 3187 3187 3188 3187 3189 3190 3190 3191 3192 3194 3195 3195 3195 3195 3195
3142 3144 3146 3148 3151 3153 3155 3157 3158 3162 3166 3167 3168 3170 3172 3174 3175 3176 3178 3179 3181 3181 3181 3182 3183 3182 3183 3184 3185 3186 3186 3186 3187 3187 3188 3189 3191 3192 3193 3194 3195 3196 3196 3197 3197
3139 3141 3143 3145 3151 3151 3154 3155 3158 3162 3166 3166 3166 3167 3169 3172 3174 3174 3176 3178 3178 3181 3180 3181 3182 3182 3183 3184 3185 3183 3184 3184 3186 3186 3181 3185 3187 3192 3194 3195 3195 3196 3197 3198 3198
3135 3138 3141 3143 3145 3149 3154 3155 3157 3162 3160 3163 3161 3162 3165 3170 3172 3171 3174 3175 3179 3180 3180 3181 3181 3181 3182 3184 3182 3184 3182 3183 3185 3185 3183 3185 3179 3188 3192 3195 3196 3197 3199 3199 3200
3131 3135 3138 3140 3142 3147 3151 3154 3158 3163 3157 3160 3158 3160 3163 3167 3170 3170 3172 3174 3176 3178 3178 3177 3178 3178 3181 3181 3181 3182 3182 3183 3184 3182 3177 3183 3180 3183 3188 3192 3194 3197 3198 3200 3200
3129 3132 3136 3137 3141 3145 3149 3154 3159 3155 3157 3159 3159 3159 3163 3165 3168 3170 3171 3172 3175 3176 3175 3175 3176 3177 3177 3180 3180 3181 3182 3178 3177 3175 3172 3183 3182 3181 3187 3189 3191 3194 3196 3197 3196
3127 3130 3132 3135 3138 3143 3148 3154 3153 3151 3155 3155 3157 3158 3161 3164 3166 3168 3168 3170 3172 3174 3172 3173 3173 3174 3175 3177 3179 3179 3177 3175 3174 3167 3172 3181 3179 3183 3184 3186 3188 3190 3192 3192 3193
3125 3127 3130 3133 3136 3141 3147 3151 3149 3150 3151 3154 3155 3157 3160 3161 3163 3165 3166 3167 3168 3171 3172 3171 3168 3171 3172 3175 3178 3178 3178 3176 3174 3176 3173 3173 3180 3182 3183 3184 3184 3187 3189 3190 3190
3123 3125 3128 3131 3134 3139 3144 3146 3147 3147 3148 3151 3153 3154 3156 3158 3162 3162 3164 3165 3166 3168 3170 3169 3168 3169 3171 3172 3173 3175 3176 3176 3174 3173 3171 3171 3175 3174 3182 3182 3183 3184 3186 3186 3186
3121 3123 3125 3128 3132 3136 3139 3144 3146 3145 3147 3151 3152 3154 3155 3156 3159 3160 3161 3162 3164 3164 3168 3169 3171 3172 3170 3169 3170 3173 3173 3174 3173 3172 3166 3166 3169 3175 3178 3180 3181 3182 3182 3183 3183
3118 3122 3121 3125 3130 3133 3137 3141 3143 3145 3146 3147 3149 3151 3153 3154 3157 3158 3158 3160 3161 3162 3166 3168 3170 3169 3166 3164 3166 3168 3168 3170 3168 3172 3172 3171 3171 3173 3176 3177 3178 3178 3179 3180 3181
3115 3116 3118 3121 3127 3130 3136 3138 3141 3144 3145 3147 3149 3150 3150 3151 3156 3156 3156 3157 3159 3162 3164 3165 3165 3161 3161 3165 3163 3165 3165 3168 3167 3168 3169 3166 3169 3172 3174 3175 3175 3176 3177 3178 3178
3113 3116 3116 3118 3122 3127 3133 3135 3139 3141 3144 3144 3146 3147 3149 3152 3152 3152 3154 3155 3157 3159 3162 3163 3162 3159 3159 3155 3157 3161 3161 3164 3166 3165 3164 3165 3167 3170 3171 3172 3172 3173 3175 3176 3177
3110 3113 3113 3115 3119 3124 3131 3134 3136 3140 3140 3142 3143 3146 3147 3147 3144 3149 3152 3155 3154 3155 3157 3162 3160 3155 3155 3156 3155 3158 3159 3161 3164 3163 3164 3165 3167 3168 3169 3170 3171 3173 3174 3175 3175
3107 3109 3110 3113 3119 3122 3126 3130 3133 3137 3140 3141 3141 3142 3142 3144 3148 3155 3155 3152 3152 3154 3155 3156 3158 3159 3157 3154 3155 3156 3156 3159 3162 3163 3165 3166 3167 3167 3166 3167 3169 3171 3172 3172 3172
3105 3107 3109 3113 3115 3120 3123 3127 3130 3134 3135 3139 3141 3143 3144 3138 3145 3147 3143 3142 3147 3148 3150 3151 3155 3156 3155 3154 3154 3157 3157 3158 3159 3161 3163 3164 3165 3165 3165 3166 3167 3169 3170 3170 3168